Location: Evergreen Manor
(41.4083°N, 81.4939°W)
Time: 02:20:48
(UTC+00:00)

BREEZE-M DEB (TANK) - Pass Details

Date: 11 December 2019
Orbit: 297 x 14273 km, 49.6° (Epoch: 28 January)

Event Time Altitude Azimuth Distance (km) Brightness Sun altitude
Exits shadow 11:00:52 25° 274° (W) 2,588 5.4 -18.3°
Maximum altitude 11:04:57 45° 333° (NNW) 1,163 3.9 -17.5°
Drops below altitude 10° 11:08:20 10° 49° (NE) 1,742 5.6 -16.9°
Sets 11:09:45 0° 58° (ENE) 2,352 6.5 -16.6°
